This is the latest recevied weather packets stored in our database for station/object AC1IX. If no packets are shown the sender has not sent any weather packets the latest 10 day(s).
| Time | Temp. | Humidity | Pressure | Rain* | Wind** | Luminosity | Snow |
|---|---|---|---|---|---|---|---|
| 1777816057 | 5° C | 81% | 1010.9 hPa | 0 mm | - | 69 W/m² | - |
| 1777815754 | 5° C | 79% | 1010.7 hPa | 0 mm | - | 58 W/m² | - |
| 1777815451 | 5.56° C | 79% | 1011.1 hPa | 0 mm | - | 58 W/m² | - |
| 1777815149 | 5.56° C | 78% | 1010.9 hPa | 0 mm | - | 193 W/m² | - |
| 1777814845 | 5.56° C | 79% | 1011.1 hPa | 0 mm | - | 80 W/m² | - |
| 1777814541 | 5.56° C | 78% | 1011.3 hPa | 0 mm | - | 113 W/m² | - |
| 1777814238 | 5.56° C | 78% | 1011.3 hPa | 0 mm | - | 143 W/m² | - |
| 1777813935 | 5.56° C | 79% | 1011.2 hPa | 0 mm | - | 151 W/m² | - |
| 1777813633 | 5.56° C | 78% | 1011.2 hPa | 0 mm | - | 169 W/m² | - |
| 1777813330 | 5.56° C | 78% | 1011.2 hPa | 0 mm | - | 233 W/m² | - |
| 1777813027 | 5.56° C | 79% | 1011 hPa | 0 mm | - | 285 W/m² | - |
| 1777812725 | 5.56° C | 78% | 1011.4 hPa | 0 mm | - | 351 W/m² | - |
| 1777812421 | 5° C | 80% | 1011.1 hPa | 0 mm | - | 217 W/m² | - |
| 1777812119 | 5.56° C | 80% | 1011.2 hPa | 0 mm | - | 198 W/m² | - |
| 1777811818 | 5° C | 80% | 1011.2 hPa | 0 mm | - | 194 W/m² | - |
| 1777811515 | 4.44° C | 80% | 1011.1 hPa | 0 mm | - | 162 W/m² | - |
| 1777811210 | 4.44° C | 82% | 1010.9 hPa | 0 mm | - | 172 W/m² | - |
| 1777810908 | 3.89° C | 82% | 1011.1 hPa | 0 mm | - | 175 W/m² | - |
| 1777810604 | 3.89° C | 83% | 1011.1 hPa | 0 mm | - | 159 W/m² | - |
| 1777810302 | 3.89° C | 84% | 1010.7 hPa | 0 mm | - | 150 W/m² | - |
| 1777809997 | 3.89° C | 84% | 1011.1 hPa | 0 mm | - | 151 W/m² | - |
| 1777809695 | 3.33° C | 84% | 1011.1 hPa | 0 mm | - | 149 W/m² | - |
| 1777809392 | 3.33° C | 87% | 1011.2 hPa | 0 mm | - | 143 W/m² | - |
| 1777809090 | 2.78° C | 86% | 1011 hPa | 0 mm | - | 131 W/m² | - |
| 1777808788 | 2.78° C | 86% | 1010.9 hPa | 0 mm | - | 123 W/m² | - |
* Rain latest hour (hover to see other rain measurements)
** Current wind speed in m/s (hover to see current wind gust speed)